Вернуться в каталог

DELTA 1 DEB

АктивенSSO
NORAD 42586·DEBRIS·🇺🇸 United States

Запущен Nov 6, 1973 с Vandenberg Space Force Base

Loading…

Ближайшие Пролёты (ближайшие 24 часа)

TLE

УстаревающийSource: Space-Track

Эпоха: Sep 9, 2026, 06:58 UTC

1 42586U 73086JA  26252.29034904  .00000006  00000-0  41083-3 0  9992
2 42586 102.3733 275.9782 0031079   7.5466  56.0916 12.35502469577265

Отслеживайте DELTA 1 DEB в реальном времени с AllMySat

Download on the App Store